Hourly Data Report for September 20, 2021

WINNIPEG THE FORKS
MANITOBA
Current Station Operator: ECCC - MSC

49°53'18.008" N
97°07'46.007" W
230.00 m
5023262
71579
XWN

Download Data

Hourly Data (September 2021)
Hourly Data Report for September 20, 2021
TIME
LST
Temp Definition
°C
Dew Point Definition
°C
Rel Hum Definition
%
Precip. Amount Definition
mm

Wind Dir Definition
10's deg

Wind Spd Definition
km/h
Visibility Definition
km
Stn Press Definition
kPa
Hmdx Definition


Wind Chill Definition


Weather Definition


00:00 17.5 9.9 61 0.0 33 8   97.64     LegendNANA
01:00 17.1 10.1 63 0.0 33 8   97.68     LegendNANA
02:00 16.4 9.9 65 0.0 34 5   97.72     LegendNANA
03:00 15.4 11.4 77 0.3 31 5   97.82     LegendNANA
04:00 14.1 11.9 87 1.4 35 4   97.82     LegendNANA
05:00 14.0 12.0 88 0.3 35 6   97.87     LegendNANA
06:00 13.5 11.3 86 0.2 1 4   97.90     LegendNANA
07:00 13.9 11.2 84 0.0 34 8   97.96     LegendNANA
08:00 14.2 10.7 80 0.0 34 6   98.06     LegendNANA
09:00 14.4 10.2 76 0.0 35 10   98.09     LegendNANA
10:00 14.9 9.7 71 0.0 35 9   98.13     LegendNANA
11:00 15.7 8.2 61 0.0 33 9   98.16     LegendNANA
12:00 16.4 7.4 55 0.0 33 9   98.20     LegendNANA
13:00 17.1 5.9 48 0.0 33 9   98.19     LegendNANA
14:00 17.6 6.3 47 0.0 33 10   98.25     LegendNANA
15:00 17.9 5.0 42 0.0 33 10   98.30     LegendNANA
16:00 18.4 6.2 45 0.0 33 10   98.28     LegendNANA
17:00 17.7 6.1 46 0.0 32 10   98.32     LegendNANA
18:00 16.9 6.4 50 0.0 33 9   98.35     LegendNANA
19:00 16.5 6.5 52 0.0 33 7   98.45     LegendNANA
20:00 15.6 7.4 58 0.0 36 8   98.64     LegendNANA
21:00 14.3 8.9 70 0.0 34 5   98.76     LegendNANA
22:00 12.9 5.9 62 0.0 33 11   98.84     LegendNANA
23:00 11.7 6.2 69 0.0 32 6   98.88     LegendNANA

Notes on Data Quality.

Legend

  • E = Estimated
  • M = Missing
  • NA = Not Available*
  • [empty] = Indicates an unobserved value
Date modified: